[Date Prev][Date Next][Thread Prev][Thread Next] - [Date Index][Thread Index][Author Index]
2 Line ISS Keps 9-28
- Subject: [sarex] 2 Line ISS Keps 9-28
- From: "Scott Avery WA6LIE" <wa6lie@xxxxxxx>
- Date: Tue, 28 Sep 2004 05:41:34 -0700
- Seal-Send-Time: Tue, 28 Sep 2004 05:41:34 -0700
ISS
1 25544U 98067A 04272.45824074 .00013111 00000-0 11820-3 0 7876
2 25544 51.6365 158.6774 0009890 160.3446 205.7271 15.68504669334549
----
Via the sarex mailing list at AMSAT.ORG courtesy of AMSAT-NA.
To unsubscribe, send "unsubscribe sarex" to Majordomo@amsat.org
AMSAT Home